Lapse_Rate
4.7 4.8 4.2 4.0 3.8 3.9 3.6 4.1 4.1 3.9 3.3 3.2 3.3 4.2 4.1 4.7 5.2 4.6 3.8 4.0 3.1 2.0 4.6 5.3 6.1 5.0 5.2 3.5 6.5 3.9 6.0 4.3 5.6 6.5 6.5 6.5 6.5 6.5 6.5 6.5 6.5 6.5 6.5 6.5 6.5 6.5 6.5 6.3 6.6 6.5 5.4 6.0 6.6 6.6
3.5 3.6 3.3 3.3 3.6 3.3 3.2 3.3 3.1 2.9 2.6 4.9 4.9 4.1 5.8 6.1 7.2 6.4 4.0 4.4 3.4 2.0 4.5 4.0 4.9 5.0 5.4 5.5 3.1 4.4 4.3 4.7 3.0 6.5 6.5 6.5 6.5 6.5 6.5 6.5 6.5 6.5 6.5 6.5 6.5 6.5 4.6 5.2 5.2 6.8 6.3 6.1 6.4 6.0
3.4 3.1 3.1 3.2 3.2 3.3 3.3 3.2 3.1 2.5 5.2 5.6 4.3 6.6 6.7 6.6 6.6 5.5 3.0 4.4 2.2 3.9 3.9 3.5 5.2 5.5 5.2 4.9 4.4 3.6 4.4 5.4 4.8 3.7 1.9 5.7 6.5 6.5 6.5 6.5 6.5 6.5 5.7 6.5 6.5 6.3 5.4 5.0 6.4 6.5 7.3 6.8 6.9 7.2
3.6 3.9 4.2 3.7 3.8 5.1 5.1 4.2 3.7 5.4 4.6 5.9 6.7 6.1 6.0 6.9 6.5 6.4 3.3 3.2 2.8 4.1 4.3 5.8 7.7 5.6 7.3 5.6 5.7 5.3 4.6 5.0 4.4 3.8 3.1 6.5 6.5 4.3 6.5 6.5 6.5 5.4 6.1 6.5 6.5 5.9 5.5 6.6 6.7 6.7 7.1 7.6 6.5 6.7
6.0 5.9 5.5 5.3 5.3 4.7 3.6 3.8 4.2 4.5 6.0 6.3 5.6 6.1 6.7 6.8 6.9 5.8 3.5 4.2 5.0 3.0 4.4 4.4 6.4 7.8 7.2 5.7 5.7 5.1 4.2 4.2 3.4 3.6 5.1 6.5 3.8 5.5 4.6 6.0 6.5 5.0 6.5 6.5 6.5 4.5 5.1 5.8 6.5 7.6 7.2 7.2 6.2 5.9
6.0 5.4 4.9 5.3 5.3 4.9 4.8 5.7 6.5 6.8 6.7 6.1 5.8 6.0 6.7 7.7 7.6 3.0 1.8 4.3 6.6 3.7 3.2 6.4 6.3 7.5 8.0 7.1 6.6 6.6 5.6 5.2 3.6 3.0 3.3 3.6 4.6 4.1 6.5 6.5 5.0 5.9 6.0 5.7 5.1 6.9 5.7 6.0 7.2 7.0 6.9 6.9 6.6 7.2
6.9 6.7 6.5 6.4 6.5 6.6 6.6 6.6 6.6 6.3 6.3 5.9 6.0 6.4 7.3 7.3 2.8 3.3 2.5 3.8 4.5 4.3 3.5 4.8 5.1 6.8 7.6 7.1 5.9 5.7 5.6 4.8 4.1 3.9 3.6 4.0 4.2 3.6 6.5 6.5 5.5 6.3 6.0 6.1 6.5 6.7 6.7 7.3 6.1 7.1 7.0 7.5 7.4 7.0
5.6 5.5 5.9 6.3 6.3 6.6 6.4 6.2 5.9 6.0 6.1 6.5 6.9 7.5 7.4 6.7 4.4 2.8 2.5 4.5 3.7 4.4 4.2 6.5 6.3 4.8 6.7 4.4 4.5 4.9 4.2 4.6 4.1 3.9 3.7 4.2 4.4 4.1 6.5 5.8 5.9 6.1 6.6 6.5 6.3 6.7 6.3 6.4 6.8 7.5 6.7 6.3 5.7 5.8
5.6 5.4 5.3 5.2 5.2 5.5 6.0 6.1 6.2 6.0 5.8 6.3 6.7 6.6 5.1 4.5 3.3 4.0 5.3 5.3 5.1 3.6 2.0 4.2 6.5 6.5 5.6 4.7 3.7 4.3 4.0 6.1 3.9 4.7 4.3 4.7 6.5 6.5 6.3 5.9 5.8 6.8 6.9 6.7 6.9 7.5 7.5 7.1 7.1 7.0 5.6 5.5 5.2 5.6
5.0 5.0 5.0 5.0 5.0 5.2 5.6 5.6 5.4 5.7 6.0 5.5 5.6 3.9 2.7 4.1 5.9 5.4 4.2 2.3 2.3 4.3 4.2 5.0 3.6 6.5 4.3 3.5 3.6 3.4 3.4 6.4 6.5 6.1 4.1 6.5 6.5 5.0 5.7 5.7 5.5 5.9 7.2 7.3 6.7 6.1 7.0 6.3 5.4 5.6 5.6 5.6 5.7 5.6
4.9 4.8 4.7 4.9 5.0 5.0 5.2 5.0 5.2 5.0 4.9 5.5 4.9 5.5 4.6 5.3 4.9 4.3 4.0 3.6 3.1 4.9 3.9 3.4 4.3 5.8 4.6 5.9 6.2 3.3 6.2 6.0 6.5 6.3 6.5 6.5 6.5 4.7 5.0 4.6 5.7 6.6 7.5 6.7 6.9 6.3 5.9 6.0 5.5 5.4 5.5 5.8 5.6 4.8
5.2 5.1 5.0 4.9 5.0 5.0 5.1 5.4 6.0 5.3 5.9 4.8 5.4 5.9 5.4 5.0 4.6 6.3 6.5 5.5 6.4 6.5 4.5 4.5 4.6 4.7 4.2 3.9 3.1 3.7 6.5 6.3 6.5 4.7 6.5 6.5 6.5 4.8 4.5 5.6 7.3 7.1 7.9 7.4 7.0 6.3 6.2 6.8 6.2 5.9 6.0 5.8 4.5 3.7
5.7 5.6 5.4 5.3 5.4 5.9 6.0 5.4 4.9 6.0 7.3 6.0 5.9 6.5 4.8 4.6 6.5 6.5 6.5 6.5 6.5 4.4 3.7 4.5 5.4 3.5 3.8 3.8 2.1 6.2 6.5 6.5 4.7 6.5 6.5 6.5 4.1 5.2 4.9 5.7 6.4 6.7 7.2 7.7 7.2 6.5 6.1 6.2 6.0 6.1 5.8 3.6 2.6 2.8
5.7 5.6 5.6 5.6 5.7 5.6 5.0 4.8 5.2 5.1 5.3 5.2 4.9 6.5 6.5 6.5 6.5 6.5 6.5 6.3 3.8 3.3 3.4 4.8 3.6 2.7 3.0 4.7 3.7 6.5 6.5 6.1 6.5 6.5 6.5 6.3 4.5 4.4 5.0 5.2 5.8 5.9 6.3 7.3 7.4 6.9 6.1 5.6 4.6 3.8 1.2 1.3 0.3 1.1
6.0 5.8 5.7 5.6 5.6 5.1 5.1 5.4 5.9 4.7 6.0 5.6 5.5 6.5 6.5 4.7 4.4 4.4 4.4 3.8 4.5 3.7 3.9 3.2 3.6 3.3 5.0 6.5 6.4 6.5 6.5 6.5 6.5 6.5 6.5 2.5 4.5 4.8 4.9 5.7 5.7 5.1 2.1 4.1 5.6 5.5 -0.1 0.5 2.4 0.8 0.4 1.3 1.7 -0.8
6.3 6.8 6.0 5.6 5.5 5.4 5.8 6.3 6.1 7.2 6.8 6.3 6.5 5.7 4.4 4.9 5.0 2.4 3.4 4.0 4.5 3.3 3.5 3.6 4.9 6.5 6.5 6.5 6.5 6.5 6.5 6.5 6.5 5.1 2.4 3.5 5.0 5.3 5.3 5.4 4.9 4.4 4.2 4.4 5.0 5.0 4.7 2.2 1.8 2.9 1.9 1.5 0.0 0.4
6.8 6.7 6.3 5.8 5.7 5.8 6.1 6.4 7.0 7.4 6.1 6.8 4.7 4.8 4.6 4.4 4.0 3.3 4.4 4.2 4.5 3.8 6.3 3.1 6.5 6.5 4.7 6.5 6.5 6.5 6.5 6.5 1.6 2.2 2.8 4.8 4.9 5.1 4.5 4.0 2.0 4.5 5.4 5.3 5.5 5.4 5.7 5.6 3.1 3.2 3.3 2.4 1.7 1.9
7.0 6.0 6.4 6.1 6.2 7.3 7.6 7.4 7.2 6.8 6.7 5.5 4.2 3.9 4.8 4.5 3.8 4.6 4.2 4.9 4.5 4.6 5.0 6.2 4.9 6.5 6.5 6.5 6.5 5.4 1.5 1.0 2.9 2.7 3.1 5.0 5.9 5.8 5.6 5.2 5.1 5.2 5.1 4.7 4.5 4.4 4.7 4.4 4.0 2.8 3.0 3.9 4.2 3.2
6.4 6.2 6.6 6.7 7.0 7.5 6.9 7.3 7.0 5.7 5.3 5.7 5.5 5.3 5.4 4.4 4.9 5.1 5.5 5.5 5.6 5.6 5.3 3.7 6.5 6.5 6.5 4.0 1.6 2.9 2.9 2.9 3.2 3.7 4.0 6.0 5.9 4.9 5.6 6.2 6.3 6.2 6.0 5.5 5.7 4.3 4.0 4.9 4.4 3.9 3.5 4.0 4.2 4.5
6.9 6.6 7.0 6.9 6.5 7.0 7.4 6.6 7.1 6.3 5.9 5.0 5.9 5.5 5.2 5.3 5.4 5.0 4.9 5.6 5.4 4.8 5.1 6.4 6.4 3.8 3.7 3.5 3.2 2.3 2.2 2.9 3.1 2.7 3.2 3.8 4.4 5.0 5.2 4.8 4.7 5.2 5.2 5.7 5.1 4.8 4.0 4.1 4.1 4.4 3.6 3.6 2.5 2.1
7.0 6.8 7.3 7.3 6.5 7.2 6.9 6.2 6.1 5.9 5.8 4.9 6.0 5.6 4.8 5.7 4.6 4.0 5.0 5.0 3.5 3.1 3.7 2.7 2.5 3.7 4.5 5.1 5.1 5.1 4.7 4.3 3.4 3.0 3.0 2.1 2.1 3.9 4.2 4.8 5.0 4.3 4.4 4.3 3.4 3.5 2.6 2.1 2.0 3.4 1.5 1.2 2.0 3.9
5.2 4.4 4.3 5.7 6.1 7.2 6.6 6.8 5.9 6.1 5.9 5.8 5.6 5.6 4.8 3.8 4.1 3.9 4.9 3.8 3.9 3.4 2.4 3.0 3.9 4.1 3.6 3.8 4.2 5.8 5.4 6.4 5.7 3.5 2.5 1.8 2.3 3.4 3.5 3.7 3.7 2.2 1.5 1.5 1.6 1.8 1.9 1.8 1.9 2.2 3.6 3.6 2.6 3.6
5.6 5.7 5.5 5.5 5.6 5.7 4.9 6.7 6.2 5.8 6.5 5.7 5.8 5.8 5.0 4.2 4.1 5.1 3.8 4.3 4.1 3.4 3.3 4.2 5.3 5.6 4.8 5.0 5.9 5.9 6.0 5.3 3.6 3.5 3.2 3.1 3.0 1.3 1.3 1.5 1.6 1.5 1.4 1.3 0.9 0.9 1.5 1.1 1.3 3.6 4.2 4.4 4.9 3.8
5.1 5.6 6.3 6.3 6.2 6.2 6.3 6.0 6.1 5.7 5.7 6.1 6.5 6.5 6.4 4.4 4.9 4.0 6.5 4.2 3.3 2.8 3.9 4.5 4.4 4.2 4.5 5.1 3.7 3.9 3.8 4.0 3.5 3.3 3.0 3.0 1.8 2.2 2.4 2.2 1.5 1.2 1.7 1.3 1.3 1.4 1.1 2.7 1.0 2.4 5.8 5.9 5.8 5.3
6.3 6.6 6.5 6.5 6.7 6.6 6.5 6.5 6.2 6.3 6.5 6.5 6.5 6.5 6.7 4.9 6.5 6.5 6.5 3.8 3.5 3.8 3.5 3.3 3.5 4.1 5.0 4.5 2.6 3.8 4.2 3.5 2.5 3.0 1.8 2.5 2.2 1.2 1.5 1.5 1.7 2.0 1.6 2.8 1.9 1.7 2.4 3.0 3.4 3.6 5.2 6.1 5.8 5.9
6.5 6.3 6.4 6.4 6.5 6.4 6.5 6.5 6.5 6.5 6.5 6.5 6.4 5.0 4.6 6.6 6.5 6.5 6.0 2.9 2.0 2.2 2.8 2.8 3.6 3.7 3.7 3.8 3.8 4.4 3.7 3.0 3.0 3.2 2.8 3.2 3.0 2.7 2.5 2.0 1.9 2.2 1.5 2.6 3.5 3.6 4.2 4.0 3.9 3.9 4.5 6.1 5.9 5.8
6.5 6.5 6.6 7.1 6.5 6.4 6.1 5.1 5.8 6.3 6.5 6.5 6.5 6.6 6.5 6.5 6.5 5.3 2.6 1.8 2.1 2.1 3.0 3.2 3.2 3.7 3.8 4.0 3.5 3.1 3.0 2.6 3.3 3.0 2.2 2.4 2.4 2.6 2.9 2.4 2.3 2.2 1.7 2.5 3.0 3.6 4.2 4.0 2.9 4.9 3.8 6.3 5.9 5.9
6.0 6.0 6.5 6.2 5.3 5.1 6.5 6.5 6.5 6.5 6.5 4.9 5.4 6.5 6.5 6.5 6.5 2.6 2.7 2.5 2.2 3.4 3.2 2.9 3.6 4.1 2.9 2.1 1.5 1.6 0.5 0.7 1.5 2.2 2.2 1.9 1.3 1.1 1.0 0.8 1.0 -0.1 1.2 2.6 3.6 3.2 3.5 2.6 4.9 4.9 6.3 6.5 6.1 3.1
5.2 6.3 6.1 6.5 4.6 4.4 4.4 6.2 6.0 4.5 4.9 4.7 6.5 6.5 4.8 4.0 2.8 2.7 2.5 2.1 1.7 1.7 2.1 2.0 1.3 1.2 1.4 1.5 0.3 0.1 1.4 2.3 2.5 2.2 2.2 0.9 1.6 1.1 -0.4 1.1 0.1 0.2 0.3 1.6 3.7 4.2 3.9 4.3 4.5 5.1 5.6 6.0 5.5 1.7
4.7 6.5 5.0 5.3 6.5 6.5 4.1 4.0 4.0 3.6 4.4 4.2 4.5 4.5 3.1 3.0 1.5 1.4 2.0 1.9 1.8 1.5 2.2 2.8 1.7 3.2 3.3 2.0 2.7 2.3 0.2 0.5 0.6 2.2 2.4 1.7 1.6 -0.0 2.0 2.6 2.7 2.7 2.6 2.9 3.2 3.2 3.5 3.2 3.8 4.8 4.8 5.0 5.5 5.7
6.3 5.3 4.7 4.9 5.6 4.1 4.4 3.6 3.6 3.2 3.0 3.5 2.5 3.5 4.1 2.3 2.1 1.5 1.8 1.4 2.4 1.9 2.6 3.1 2.9 2.8 3.1 3.0 2.6 2.3 2.1 0.9 -0.5 0.1 0.5 1.1 1.4 0.2 0.7 2.3 2.6 1.4 0.3 -0.3 1.6 2.7 3.2 4.4 6.5 6.1 6.1 5.7 5.8 5.8
6.0 5.9 6.1 6.5 5.8 4.3 4.1 3.7 4.1 4.2 4.2 3.6 3.5 3.8 3.7 4.3 3.9 2.6 2.7 3.1 3.3 3.1 3.2 3.2 2.7 2.5 1.9 0.8 1.0 0.4 -0.3 0.3 1.0 1.5 1.5 -0.2 0.9 2.1 2.0 -0.5 -0.6 -1.6 -1.8 -0.6 2.0 2.6 3.3 5.2 6.9 6.7 6.7 6.6 6.8 6.3
5.2 6.1 5.9 4.7 6.4 5.6 5.2 4.7 5.2 5.2 4.9 4.5 4.6 4.7 5.1 3.9 4.0 3.3 2.1 2.4 2.6 3.0 2.8 2.4 2.0 1.4 1.2 1.9 1.7 0.6 -0.1 0.6 -0.3 1.0 -0.3 -0.2 -0.0 -0.4 -0.7 -1.4 -1.9 -1.9 -0.5 0.0 1.5 2.9 3.9 5.8 6.3 6.5 5.1 6.4 5.4 5.5
Wind_Speed
43 42 42 43 41 41 43 42 44 45 43 40 34 23 17 16 9 4 1 1 4 3 4 10 10 6 6 5 5 7 4 2 2 1 3 3 2 2 2 2 4 3 2 2 1 3 4 3 2 3 7 3 1 2
38 40 41 42 42 42 43 42 45 44 45 38 31 22 17 11 12 6 3 2 3 5 3 9 8 9 6 5 6 3 6 4 4 3 1 1 2 2 2 2 3 2 6 4 5 5 7 6 6 2 1 0 2 5
36 37 37 38 39 39 39 43 47 47 41 33 26 20 14 9 7 6 4 6 5 5 4 5 6 6 11 7 4 5 1 5 2 5 3 2 1 3 3 4 5 4 5 4 4 5 8 8 3 4 1 3 3 3
37 36 37 37 37 35 38 44 47 44 36 29 23 18 14 10 8 11 5 2 4 4 4 2 1 5 4 8 8 5 7 5 6 3 2 2 2 3 3 3 1 5 4 5 4 5 3 2 4 4 3 1 6 7
36 36 36 35 33 36 40 44 44 40 32 27 20 17 15 8 13 15 5 4 1 5 4 4 5 3 5 7 9 8 7 6 2 2 2 2 2 3 3 1 3 3 6 4 5 7 5 2 6 4 4 3 7 7
33 33 32 33 34 35 36 38 39 35 31 28 21 15 12 21 20 5 4 3 6 4 4 3 0 3 2 7 7 6 3 1 3 4 3 2 4 3 1 3 7 1 5 3 4 4 5 6 3 5 6 6 5 2
31 33 34 35 34 35 35 34 34 32 30 27 23 21 21 19 7 3 5 2 7 2 3 3 3 3 4 4 2 2 3 1 2 1 1 2 1 4 2 4 6 11 7 7 4 5 3 2 4 6 6 5 3 7
32 33 34 35 36 36 35 35 34 33 31 28 28 29 29 25 12 4 4 10 6 3 4 4 2 3 5 2 2 2 2 1 2 3 3 1 1 2 3 6 6 10 4 5 6 3 4 6 6 2 5 7 8 7
31 32 33 33 34 34 34 34 32 31 30 30 32 29 5 4 3 1 3 6 3 4 3 3 5 4 4 3 3 2 3 1 3 3 3 2 3 5 6 5 7 2 2 3 5 2 2 3 4 5 8 8 8 6
29 29 29 30 30 30 30 29 28 31 30 27 5 5 2 1 6 2 6 4 5 3 3 3 4 3 5 3 1 3 2 3 2 4 2 3 4 7 6 8 7 3 2 3 3 4 2 4 7 7 8 6 6 5
26 26 26 26 26 27 26 23 23 19 6 3 3 2 1 0 2 3 2 3 1 1 2 3 5 6 2 4 3 3 3 2 1 4 4 3 3 5 5 7 5 3 2 5 5 5 7 7 6 7 6 5 5 6
24 23 22 22 22 23 24 22 15 1 1 6 7 5 2 2 3 4 3 2 3 5 3 5 4 6 3 4 3 2 3 1 3 1 2 3 4 7 8 7 4 2 0 4 5 7 7 8 7 6 5 5 5 5
21 21 19 19 19 20 16 8 1 11 21 3 3 3 4 1 3 7 7 4 3 4 4 5 6 4 4 3 3 3 2 3 0 2 3 4 3 6 7 6 5 6 5 3 5 6 7 7 7 5 4 4 7 5
20 19 18 17 17 13 8 8 9 5 1 3 4 3 4 3 4 5 5 5 4 5 6 8 3 3 2 3 2 4 4 2 1 2 5 3 5 7 7 6 6 6 6 2 1 4 6 7 7 6 6 6 6 6
21 20 18 14 12 7 8 7 5 2 1 3 3 3 4 3 2 1 3 5 3 5 5 4 4 3 2 3 1 3 3 3 5 4 4 3 6 7 7 6 6 6 5 5 3 1 2 4 5 5 5 6 6 4
20 12 5 13 11 8 5 2 3 1 2 1 2 3 2 5 3 3 2 3 3 4 4 4 3 3 3 4 3 6 5 5 4 4 3 5 6 5 5 6 6 6 6 6 6 6 6 6 7 7 5 6 5 6
12 3 13 12 11 9 5 2 2 3 3 2 1 2 3 4 3 1 0 3 3 4 3 3 4 6 2 3 4 4 4 3 3 3 3 5 6 5 6 6 5 4 3 2 2 3 3 3 5 5 6 6 8 7
2 12 17 14 10 3 1 2 1 2 2 1 3 2 2 2 4 1 3 1 4 5 2 3 4 3 4 4 3 3 2 2 3 4 4 4 4 4 4 5 5 6 6 6 5 6 5 5 5 6 7 6 7 6
11 15 18 14 6 2 3 1 2 2 1 1 2 2 1 1 1 2 2 1 3 3 2 1 2 2 3 3 3 3 4 3 3 3 3 3 4 5 4 1 1 1 1 2 3 3 3 3 3 3 4 4 5 6
22 19 18 15 2 1 3 2 2 1 2 3 1 2 2 2 2 1 1 2 3 2 3 4 4 3 2 1 1 4 4 5 4 3 2 3 3 5 6 5 4 4 3 0 1 2 2 3 3 2 3 4 3 3
7 6 9 4 2 2 1 3 3 3 2 2 3 3 2 1 3 2 1 1 2 3 2 3 2 3 2 1 1 1 2 4 4 5 4 3 3 3 3 3 3 2 2 1 2 1 2 1 2 3 3 2 2 3
4 15 3 2 1 2 1 3 3 2 2 2 2 3 2 2 2 3 2 1 3 3 3 3 3 3 4 5 3 3 4 3 3 3 4 5 2 1 2 3 2 2 3 3 2 2 1 1 2 2 4 2 0 3
10 3 2 2 2 2 4 1 3 3 3 3 2 3 1 2 4 4 2 4 4 4 4 5 5 6 6 5 3 4 5 7 5 5 5 4 4 3 3 3 4 4 2 2 2 3 2 1 2 3 2 2 3 2
8 4 5 7 5 4 2 2 2 3 2 2 3 2 2 3 3 2 3 3 3 3 5 7 5 4 3 4 4 5 5 3 3 3 4 5 3 3 4 4 3 3 3 3 3 3 2 0 2 2 3 3 3 4
5 6 5 6 4 4 5 5 4 3 3 4 4 2 3 2 1 2 3 3 3 4 4 5 5 6 7 6 3 5 7 5 4 5 4 4 4 2 2 2 3 4 3 4 2 3 2 2 2 3 3 4 5 5
5 6 8 7 5 5 6 5 5 5 3 3 3 3 1 1 2 4 3 3 3 4 4 5 6 5 5 5 5 4 5 5 5 4 4 5 5 5 4 4 2 3 1 4 4 5 4 4 5 6 5 6 6 5
6 5 4 3 4 6 3 3 3 4 4 5 4 3 3 3 5 4 2 2 3 3 4 5 5 5 5 4 4 3 4 5 5 4 4 4 4 5 5 4 4 3 4 5 5 4 5 5 5 6 5 4 6 6
4 5 6 8 4 3 5 4 5 6 5 4 5 5 7 8 5 3 2 1 1 2 2 1 1 2 3 4 3 5 4 5 7 7 6 5 4 4 5 4 4 5 4 4 3 3 4 4 4 5 6 7 5 5
4 8 7 9 3 4 4 5 5 3 5 4 6 4 4 3 3 2 1 2 2 3 1 1 3 4 4 4 4 3 7 7 6 6 6 3 1 2 2 3 3 3 2 1 2 4 5 5 5 6 6 4 4 3
5 9 5 6 6 4 4 5 5 4 4 4 3 1 2 1 3 2 3 3 2 3 3 3 2 2 4 3 5 3 1 2 3 5 7 6 6 3 4 4 3 3 2 2 3 4 5 3 3 5 5 4 4 4
9 4 4 4 5 3 4 3 2 2 2 3 1 3 4 2 3 2 3 3 4 4 3 5 6 6 6 6 6 7 5 4 3 4 4 3 6 5 4 4 4 3 3 2 2 2 3 3 4 4 5 6 6 7
8 9 8 4 3 4 6 4 4 2 3 3 3 3 2 2 4 3 3 6 5 5 8 8 7 8 10 5 4 2 1 3 8 8 12 5 4 6 7 4 4 3 3 3 3 2 3 4 4 5 6 9 9 8
4 8 8 4 4 5 4 4 4 3 3 3 4 4 5 4 6 4 2 6 7 9 9 10 9 5 6 10 8 5 4 3 6 9 8 8 9 7 5 4 4 3 3 3 3 3 4 5 6 7 6 7 7 6
Wind_Direction
142 144 143 143 144 146 143 145 146 146 140 132 130 143 160 198 208 121 174 195 115 104 92 117 117 135 122 112 129 180 85 313 76 88 135 241 98 247 63 265 138 153 137 242 71 59 303 301 358 117 217 249 262 87
125 131 134 136 140 143 142 142 143 139 132 135 145 150 175 191 122 95 96 324 92 79 150 87 84 39 87 184 125 140 169 126 170 94 284 43 20 64 174 262 141 224 180 185 153 218 222 242 223 206 136 216 315 110
115 120 124 131 134 137 140 141 141 136 140 143 142 159 168 132 92 97 114 119 75 98 46 48 63 21 34 51 104 122 64 127 172 168 168 212 70 117 169 241 198 242 172 156 77 275 243 242 152 129 154 67 306 154
110 116 120 120 124 129 133 135 134 137 137 145 149 157 149 143 88 100 98 79 86 106 100 3 43 35 18 58 56 85 129 83 120 94 118 157 170 168 228 224 149 203 115 193 233 257 36 320 148 100 63 43 309 90
103 108 111 115 117 123 126 133 136 139 148 151 146 151 147 137 121 85 73 29 81 122 139 136 80 49 63 80 75 78 103 111 131 78 102 227 241 63 288 27 272 203 235 179 230 239 169 170 134 183 156 73 69 70
100 104 106 110 114 118 122 130 137 144 147 147 143 148 135 123 102 65 48 332 110 108 98 104 17 100 105 107 113 131 153 179 157 147 211 236 179 114 226 255 246 300 304 185 184 137 145 166 168 82 98 77 96 54
105 109 113 116 119 121 126 132 136 134 133 132 129 120 99 80 67 89 165 211 7 79 93 85 84 185 152 115 67 60 47 358 103 296 218 195 303 134 210 231 265 298 289 303 259 158 154 167 144 116 133 128 146 75
107 110 113 117 121 125 128 128 130 128 127 123 116 112 106 103 108 41 346 23 21 85 94 104 113 85 157 160 114 175 138 97 306 200 326 186 84 158 250 255 286 243 218 50 33 48 153 130 140 170 126 93 74 61
103 107 110 113 116 120 123 124 124 122 120 120 119 120 95 37 67 229 317 343 4 111 127 108 143 189 165 167 144 31 119 93 247 193 212 143 222 217 215 226 271 359 83 37 14 322 40 123 143 113 96 80 77 61
101 104 108 112 114 118 124 122 119 122 124 130 109 63 40 296 113 63 14 25 14 344 40 131 138 160 136 145 134 103 144 209 202 238 136 196 247 235 205 207 225 228 109 173 176 306 250 99 91 91 97 92 95 92
104 108 111 114 117 119 123 118 118 114 99 68 86 87 80 18 71 61 95 104 227 60 206 211 130 134 242 116 138 158 185 220 179 257 145 253 260 226 170 127 97 61 344 290 160 119 109 108 104 104 102 113 111 101
109 110 113 114 116 120 124 124 133 167 135 141 119 115 108 77 60 108 172 221 189 209 186 130 140 147 160 123 114 187 178 106 236 185 81 270 262 141 122 127 158 171 47 41 98 131 129 120 122 127 140 143 129 129
109 110 111 111 116 119 125 124 205 120 115 116 83 100 102 209 77 168 184 207 196 151 177 130 129 125 43 78 83 109 135 198 95 88 227 226 256 133 144 153 155 128 93 72 98 101 115 128 133 146 164 140 146 155
107 107 106 106 111 114 88 67 86 6 46 110 113 92 162 203 214 209 178 169 191 130 126 130 99 118 132 72 156 104 206 135 189 217 234 230 184 154 142 152 136 147 136 93 86 165 167 170 183 181 167 164 157 174
110 106 105 99 109 95 75 84 37 14 354 109 103 138 194 182 194 99 54 88 105 129 111 94 53 88 78 92 192 151 163 229 208 230 219 203 142 132 142 151 160 165 170 181 211 240 197 194 183 207 193 179 183 163
127 114 89 120 118 114 105 33 292 323 53 67 100 44 70 67 2 19 62 109 135 115 94 81 129 112 185 154 163 199 184 214 238 202 203 122 117 128 151 151 153 158 170 198 209 218 213 204 212 222 181 198 192 180
166 96 152 129 120 117 82 357 6 25 43 81 356 3 100 104 179 195 250 160 126 99 145 130 122 190 143 164 192 176 208 209 181 143 128 126 128 138 128 130 140 148 168 236 237 247 236 228 193 177 206 216 196 190
48 146 149 150 150 139 64 317 24 107 108 62 101 280 343 125 141 212 269 152 115 154 120 185 146 202 184 181 214 229 164 169 134 145 145 124 122 127 144 175 194 202 210 223 230 241 246 251 214 218 219 209 185 185
138 154 159 174 194 132 124 8 29 127 127 121 89 118 105 26 36 176 224 320 137 150 137 12 197 201 201 210 191 171 155 153 167 178 166 166 156 141 140 113 310 230 278 255 251 246 241 221 207 221 212 187 182 189
141 153 168 191 13 306 106 68 25 121 157 202 119 157 136 182 215 329 343 269 152 127 199 204 189 209 162 295 151 176 177 170 144 130 191 223 199 175 183 187 215 236 254 344 25 58 35 1 327 294 192 187 158 144
91 149 70 49 323 314 11 134 191 194 142 141 180 162 190 186 137 149 237 311 44 206 202 204 192 229 187 146 76 91 111 149 169 166 186 208 238 161 188 196 151 148 166 204 141 324 43 209 234 139 108 91 108 130
101 102 94 320 348 313 309 205 154 142 108 187 144 172 157 140 175 193 164 123 234 231 189 174 212 229 275 268 211 213 217 204 171 125 100 125 138 178 210 215 158 150 126 155 144 161 182 136 95 97 105 135 162 126
109 81 94 139 154 174 234 173 119 169 132 184 151 164 215 184 199 130 187 214 234 208 196 204 213 225 233 253 255 250 224 204 204 207 199 194 198 183 148 142 134 133 137 275 166 141 152 173 116 107 133 140 143 130
123 128 161 173 178 173 147 159 161 159 157 155 176 208 195 185 164 162 214 228 223 186 194 210 203 228 260 248 229 233 240 195 203 199 187 173 177 216 170 166 148 150 159 152 111 91 80 109 228 155 170 175 183 169
129 169 179 172 178 139 152 151 171 136 164 181 187 202 215 154 172 217 227 251 202 211 213 203 207 209 220 231 225 232 217 184 181 194 218 164 159 95 79 116 148 178 145 139 176 177 180 227 237 231 196 198 194 185
191 171 188 161 141 141 168 143 164 153 139 138 190 190 140 107 164 235 244 215 212 202 206 207 210 203 218 200 208 224 219 180 151 168 212 165 154 148 154 143 141 290 123 156 164 196 208 232 233 232 224 214 202 194
201 173 172 205 157 137 130 111 134 139 150 166 169 153 129 192 229 241 267 234 181 233 207 198 190 200 204 208 215 203 175 153 159 177 158 143 135 148 145 161 187 216 167 152 167 171 205 231 227 239 226 206 203 203
194 149 146 159 174 162 138 149 155 171 174 167 139 175 186 196 221 235 183 278 103 72 66 80 127 203 214 207 151 114 88 97 89 85 72 50 61 97 107 105 117 118 112 138 187 190 226 226 235 238 236 233 231 210
193 147 137 169 167 191 173 160 173 168 163 161 172 191 209 215 197 149 194 162 125 79 55 14 351 12 42 50 50 93 136 137 123 132 146 162 113 286 154 141 127 113 112 132 244 264 263 261 262 265 261 249 242 208
172 160 144 152 163 182 210 147 163 184 175 179 173 17 13 288 221 162 120 120 135 188 203 214 186 176 161 137 143 129 1 142 142 155 175 188 200 176 155 144 155 187 201 230 267 282 278 232 250 271 266 253 235 225
143 139 129 133 182 176 154 135 127 120 152 178 166 168 215 254 328 250 166 171 167 148 177 221 217 210 198 194 183 176 211 226 192 153 148 136 157 152 144 161 186 183 188 191 213 229 243 253 242 231 236 248 255 243
148 172 150 138 143 146 141 153 146 159 172 176 214 183 169 194 231 253 198 158 170 188 207 216 214 220 211 199 195 201 171 148 177 190 189 166 155 168 173 166 159 162 165 185 195 219 258 270 273 265 243 237 239 241
135 166 167 114 128 150 143 130 167 197 177 185 220 192 202 188 221 233 193 196 198 200 196 204 210 186 184 199 206 196 172 153 161 175 169 151 156 153 146 143 139 148 169 203 204 203 241 264 270 272 272 269 239 237